Location: Hylvaty SDH
(49.9612°N, 16.4057°E)
Time: 20:48:37
(UTC+01:00)

Vanguard 1 Rocket - Pass Details

Date: 04 October 2020
Orbit: 656 x 4221 km, 34.3° (Epoch: 30 October)

Event Time Altitude Azimuth Distance (km) Brightness Sun altitude
Rises 20:45:39 0° 262° (W) 5,504 12.4 -23.0°
Reaches altitude 10° 20:48:52 10° 256° (WSW) 4,895 11.8 -23.5°
Maximum altitude 21:02:59 44° 191° (S) 4,173 10.5 -25.6°
Enters shadow 21:14:43 28° 144° (SE) 5,671 10.9 -27.2°
Drops below altitude 10° 21:25:04 10° 130° (SE) 7,394 - -28.7°
Sets 21:31:31 0° 125° (SE) 8,451 - -29.6°
